TAM3132 SBPA-SBCT

Flight info

Callsign TAM3132
Flight time 0h 45m
Altitude 37000
Route PENSO UZ132 VUGUP
Aircraft A20N/M-SDE2E3FGHIRWXY/LB1

Departure

Time 2026-04-28 00:17
Airport Porto Alegre-Salgado Filho International Airport (SBPA)

Arrival

Time 2026-04-28 01:03
Airport Curitiba-Afonso Pena International Airport (SBCT)
Time Latitude Longitude Altitude Speed Heading
2026-04-27 23:52 -29.99105 -51.17402 19 ft 0 kts
2026-04-28 00:07 -29.99107 -51.17402 -8 ft 2 kts
2026-04-28 00:07 -29.99123 -51.17402 22 ft 2 kts
2026-04-28 00:08 -29.99140 -51.17402 20 ft 2 kts
2026-04-28 00:08 -29.99156 -51.17403 22 ft 2 kts
2026-04-28 00:08 -29.99172 -51.17408 22 ft 2 kts 59°
2026-04-28 00:08 -29.99174 -51.17416 22 ft 0 kts 88°
2026-04-28 00:13 -29.99174 -51.17415 19 ft 0 kts 88°
2026-04-28 00:13 -29.99181 -51.17395 19 ft 7 kts 135°
2026-04-28 00:13 -29.99256 -51.17390 19 ft 12 kts 152°
2026-04-28 00:13 -29.99269 -51.17307 19 ft 11 kts 90°
2026-04-28 00:14 -29.99270 -51.17216 18 ft 11 kts 93°
2026-04-28 00:14 -29.99272 -51.17122 18 ft 13 kts 91°
2026-04-28 00:14 -29.99275 -51.17002 19 ft 16 kts 91°
2026-04-28 00:14 -29.99277 -51.16869 19 ft 17 kts 92°
2026-04-28 00:15 -29.99280 -51.16723 18 ft 19 kts 91°
2026-04-28 00:15 -29.99284 -51.16569 19 ft 20 kts 91°
2026-04-28 00:15 -29.99287 -51.16403 19 ft 21 kts 91°
2026-04-28 00:15 -29.99299 -51.16255 19 ft 15 kts 119°
2026-04-28 00:16 -29.99384 -51.16234 20 ft 12 kts 180°
2026-04-28 00:16 -29.99462 -51.16233 22 ft 10 kts 181°
2026-04-28 00:16 -29.99479 -51.16244 22 ft 1 kts 270°
2026-04-28 00:16 -29.99478 -51.16356 21 ft 47 kts 271°
2026-04-28 00:17 -29.99464 -51.17016 16 ft 119 kts 271°
2026-04-28 00:17 -29.99440 -51.18159 312 ft 147 kts 274°
2026-04-28 00:17 -29.99383 -51.19286 1198 ft 136 kts 274°
2026-04-28 00:17 -29.99299 -51.20470 1733 ft 164 kts 274°
2026-04-28 00:18 -29.99177 -51.21880 2178 ft 190 kts 275°
2026-04-28 00:18 -29.99018 -51.23473 2830 ft 206 kts 275°
2026-04-28 00:18 -29.98919 -51.25117 3636 ft 208 kts 272°
2026-04-28 00:18 -29.98620 -51.26749 4533 ft 213 kts 296°
2026-04-28 00:19 -29.97526 -51.27954 5222 ft 235 kts 334°
2026-04-28 00:19 -29.95817 -51.28239 5710 ft 264 kts
2026-04-28 00:19 -29.93939 -51.28046 6461 ft 273 kts 360°
2026-04-28 00:19 -29.92041 -51.27954 7412 ft 273 kts 358°
2026-04-28 00:20 -29.90134 -51.27889 8326 ft 276 kts 357°
2026-04-28 00:20 -29.88220 -51.27824 9185 ft 281 kts 356°
2026-04-28 00:20 -29.86252 -51.27753 10057 ft 285 kts 355°
2026-04-28 00:20 -29.84219 -51.27679 10585 ft 301 kts 355°
2026-04-28 00:21 -29.82057 -51.27603 10997 ft 319 kts 355°
2026-04-28 00:21 -29.79833 -51.27515 11635 ft 327 kts 355°
2026-04-28 00:21 -29.77548 -51.27420 12385 ft 331 kts 355°
2026-04-28 00:21 -29.75226 -51.27324 13225 ft 334 kts 354°
2026-04-28 00:22 -29.72896 -51.27229 13991 ft 338 kts 354°
2026-04-28 00:22 -29.70523 -51.27118 14639 ft 344 kts 356°
2026-04-28 00:22 -29.68113 -51.26631 15267 ft 359 kts
2026-04-28 00:22 -29.65696 -51.25782 15912 ft 366 kts 10°
2026-04-28 00:23 -29.63263 -51.24849 16574 ft 371 kts 11°
2026-04-28 00:23 -29.60830 -51.23908 17205 ft 376 kts 11°
2026-04-28 00:23 -29.58334 -51.22946 17854 ft 380 kts 11°
2026-04-28 00:23 -29.55805 -51.21979 18492 ft 386 kts 11°
2026-04-28 00:24 -29.53248 -51.21003 19112 ft 389 kts 10°
2026-04-28 00:24 -29.50672 -51.20021 19765 ft 390 kts 10°
2026-04-28 00:24 -29.48095 -51.19041 20448 ft 391 kts
2026-04-28 00:24 -29.45496 -51.18053 21122 ft 393 kts
2026-04-28 00:25 -29.42927 -51.17077 21765 ft 395 kts
2026-04-28 00:25 -29.40310 -51.16087 22420 ft 397 kts
2026-04-28 00:25 -29.37681 -51.15093 23068 ft 399 kts
2026-04-28 00:25 -29.35036 -51.14094 23753 ft 400 kts
2026-04-28 00:26 -29.32383 -51.13091 24256 ft 404 kts
2026-04-28 00:26 -29.29701 -51.12080 24691 ft 406 kts
2026-04-28 00:26 -29.27021 -51.11070 25246 ft 407 kts
2026-04-28 00:26 -29.24327 -51.10048 25728 ft 408 kts
2026-04-28 00:27 -29.21626 -51.09094 26083 ft 403 kts
2026-04-28 00:27 -29.18941 -51.08400 26547 ft 401 kts 360°
2026-04-28 00:27 -29.16198 -51.07764 27004 ft 402 kts 358°
2026-04-28 00:27 -29.13450 -51.07139 27524 ft 402 kts 358°
2026-04-28 00:28 -29.10704 -51.06514 27968 ft 403 kts 357°
2026-04-28 00:28 -29.07944 -51.05884 28373 ft 404 kts 357°
2026-04-28 00:28 -29.05177 -51.05250 28783 ft 406 kts 357°
2026-04-28 00:28 -29.02440 -51.04621 29195 ft 408 kts 356°
2026-04-28 00:29 -28.99377 -51.03916 29591 ft 409 kts 356°
2026-04-28 00:29 -28.88489 -51.01405 31049 ft 412 kts 356°
2026-04-28 00:29 -28.77208 -50.98803 32551 ft 412 kts 356°
2026-04-28 00:29 -28.65817 -50.96199 33165 ft 425 kts 357°
2026-04-28 00:30 -28.54303 -50.93536 33162 ft 418 kts 356°
2026-04-28 00:30 -28.31627 -50.88351 33162 ft 419 kts 357°
2026-04-28 00:31 -28.08674 -50.83121 33155 ft 421 kts 358°
2026-04-28 00:31 -27.97601 -50.77622 33146 ft 470 kts 27°
2026-04-28 00:31 -27.86717 -50.71303 33147 ft 414 kts 354°
2026-04-28 00:31 -27.80055 -50.70017 33142 ft 444 kts 12°
2026-04-28 00:32 -27.77350 -50.68153 33150 ft 464 kts 23°
2026-04-28 00:32 -27.72215 -50.63730 33105 ft 466 kts 24°
2026-04-28 00:33 -27.66854 -50.59727 33144 ft 457 kts 18°
2026-04-28 00:33 -27.61366 -50.56271 33145 ft 452 kts 15°
2026-04-28 00:34 -27.55799 -50.52994 33143 ft 451 kts 15°
2026-04-28 00:34 -27.50222 -50.49730 33142 ft 451 kts 15°
2026-04-28 00:35 -27.44655 -50.46452 33142 ft 452 kts 15°
2026-04-28 00:35 -27.39140 -50.43151 33104 ft 451 kts 15°
2026-04-28 00:35 -27.36388 -50.41493 32746 ft 445 kts 15°
2026-04-28 00:36 -27.33676 -50.39852 32451 ft 437 kts 15°
2026-04-28 00:36 -27.31015 -50.38246 32063 ft 432 kts 15°
2026-04-28 00:36 -27.28368 -50.36656 31625 ft 429 kts 15°
2026-04-28 00:36 -27.25775 -50.35105 31152 ft 427 kts 15°
2026-04-28 00:37 -27.23158 -50.33543 30695 ft 425 kts 15°
2026-04-28 00:37 -27.20558 -50.32001 30321 ft 420 kts 14°
2026-04-28 00:37 -27.17972 -50.30475 30065 ft 419 kts 14°
2026-04-28 00:37 -27.15384 -50.28954 29790 ft 420 kts 15°
2026-04-28 00:38 -27.12798 -50.27441 29496 ft 418 kts 14°
2026-04-28 00:38 -27.10223 -50.25931 29239 ft 417 kts 15°
2026-04-28 00:38 -27.07664 -50.24418 28905 ft 415 kts 15°
2026-04-28 00:38 -27.05117 -50.22913 28415 ft 413 kts 15°
2026-04-28 00:39 -27.02580 -50.21413 27939 ft 410 kts 15°
2026-04-28 00:39 -27.00095 -50.19946 27492 ft 408 kts 16°
2026-04-28 00:39 -26.97587 -50.18472 27038 ft 405 kts 16°
2026-04-28 00:39 -26.95102 -50.17010 26604 ft 401 kts 16°
2026-04-28 00:40 -26.92633 -50.15561 26187 ft 398 kts 16°
2026-04-28 00:40 -26.90181 -50.14120 25765 ft 396 kts 16°
2026-04-28 00:40 -26.87748 -50.12690 25360 ft 394 kts 16°
2026-04-28 00:40 -26.85323 -50.11268 24897 ft 392 kts 17°
2026-04-28 00:41 -26.82950 -50.09875 24499 ft 389 kts 17°
2026-04-28 00:41 -26.80558 -50.08472 24082 ft 387 kts 17°
2026-04-28 00:41 -26.78178 -50.07074 23764 ft 385 kts 17°
2026-04-28 00:41 -26.75800 -50.05683 23514 ft 385 kts 17°
2026-04-28 00:42 -26.73434 -50.04300 23259 ft 384 kts 17°
2026-04-28 00:42 -26.71076 -50.02920 22984 ft 382 kts 17°
2026-04-28 00:42 -26.68727 -50.01545 22721 ft 380 kts 17°
2026-04-28 00:42 -26.66420 -50.00195 22473 ft 378 kts 17°
2026-04-28 00:43 -26.64065 -49.98819 22211 ft 376 kts 17°
2026-04-28 00:43 -26.61786 -49.97487 21959 ft 374 kts 17°
2026-04-28 00:43 -26.59483 -49.96143 21692 ft 372 kts 18°
2026-04-28 00:43 -26.57190 -49.94806 21447 ft 370 kts 18°
2026-04-28 00:44 -26.54904 -49.93474 21167 ft 369 kts 18°
2026-04-28 00:44 -26.52667 -49.92171 20695 ft 365 kts 18°
2026-04-28 00:44 -26.50419 -49.90860 20453 ft 364 kts 18°
2026-04-28 00:44 -26.48179 -49.89555 20214 ft 363 kts 18°
2026-04-28 00:45 -26.45943 -49.88254 19984 ft 362 kts 18°
2026-04-28 00:45 -26.43720 -49.86959 19743 ft 360 kts 18°
2026-04-28 00:45 -26.41502 -49.85667 19508 ft 359 kts 18°
2026-04-28 00:45 -26.39293 -49.84382 19281 ft 357 kts 19°
2026-04-28 00:46 -26.37093 -49.83104 19054 ft 356 kts 19°
2026-04-28 00:46 -26.34930 -49.81852 18834 ft 354 kts 18°
2026-04-28 00:46 -26.32697 -49.80776 18601 ft 347 kts 12°
2026-04-28 00:46 -26.30438 -49.79848 18377 ft 345 kts 11°
2026-04-28 00:47 -26.28187 -49.78954 18105 ft 343 kts 11°
2026-04-28 00:47 -26.25943 -49.78064 17848 ft 342 kts 11°
2026-04-28 00:47 -26.23700 -49.77175 17589 ft 341 kts 11°
2026-04-28 00:47 -26.21467 -49.76288 17328 ft 340 kts 11°
2026-04-28 00:48 -26.19243 -49.75403 17082 ft 339 kts 12°
2026-04-28 00:48 -26.17028 -49.74522 16826 ft 337 kts 12°
2026-04-28 00:48 -26.14853 -49.73657 16579 ft 336 kts 12°
2026-04-28 00:48 -26.12656 -49.72783 16335 ft 335 kts 12°
2026-04-28 00:49 -26.10469 -49.71913 16090 ft 333 kts 12°
2026-04-28 00:49 -26.08286 -49.71045 15844 ft 332 kts 12°
2026-04-28 00:49 -26.06118 -49.70183 15608 ft 330 kts 12°
2026-04-28 00:49 -26.03960 -49.69325 15368 ft 328 kts 13°
2026-04-28 00:50 -26.02550 -49.68763 15248 ft 322 kts 13°
2026-04-28 00:50 -25.99784 -49.67661 14880 ft 315 kts 13°
2026-04-28 00:50 -25.97726 -49.66845 14543 ft 313 kts 13°
2026-04-28 00:50 -25.95674 -49.66032 14198 ft 312 kts 13°
2026-04-28 00:51 -25.93628 -49.65222 13857 ft 311 kts 13°
2026-04-28 00:51 -25.92278 -49.64689 13608 ft 311 kts 14°
2026-04-28 00:51 -25.90249 -49.63885 13267 ft 309 kts 14°
2026-04-28 00:51 -25.87579 -49.62827 12810 ft 306 kts 14°
2026-04-28 00:52 -25.85574 -49.62032 12457 ft 305 kts 14°
2026-04-28 00:52 -25.83585 -49.61245 12122 ft 303 kts 15°
2026-04-28 00:52 -25.82274 -49.60725 11889 ft 302 kts 15°
2026-04-28 00:52 -25.80291 -49.59942 11531 ft 302 kts 15°
2026-04-28 00:53 -25.78318 -49.59162 11180 ft 301 kts 15°
2026-04-28 00:53 -25.76345 -49.58382 10830 ft 300 kts 16°
2026-04-28 00:53 -25.74378 -49.57604 10486 ft 299 kts 16°
2026-04-28 00:53 -25.72419 -49.56830 10137 ft 298 kts 16°
2026-04-28 00:54 -25.70491 -49.56067 9936 ft 290 kts 16°
2026-04-28 00:54 -25.67990 -49.55079 9453 ft 287 kts 16°
2026-04-28 00:54 -25.66748 -49.54589 9175 ft 286 kts 17°
2026-04-28 00:54 -25.64868 -49.53850 8683 ft 287 kts 17°
2026-04-28 00:55 -25.62989 -49.53109 8235 ft 287 kts 18°
2026-04-28 00:55 -25.61115 -49.52371 7858 ft 284 kts 18°
2026-04-28 00:55 -25.59327 -49.51506 7698 ft 278 kts 31°
2026-04-28 00:55 -25.57797 -49.50164 7672 ft 284 kts 41°
2026-04-28 00:56 -25.56362 -49.48643 7659 ft 287 kts 43°
2026-04-28 00:56 -25.54962 -49.47113 7639 ft 287 kts 44°
2026-04-28 00:56 -25.53541 -49.45559 7623 ft 286 kts 43°
2026-04-28 00:56 -25.52121 -49.44012 7594 ft 286 kts 43°
2026-04-28 00:57 -25.50699 -49.42467 7574 ft 286 kts 43°
2026-04-28 00:57 -25.49292 -49.40942 7511 ft 277 kts 43°
2026-04-28 00:57 -25.47948 -49.39485 7467 ft 262 kts 43°
2026-04-28 00:57 -25.46698 -49.38132 7407 ft 249 kts 43°
2026-04-28 00:58 -25.45496 -49.36832 7338 ft 232 kts 43°
2026-04-28 00:58 -25.44377 -49.35623 7222 ft 217 kts 43°
2026-04-28 00:58 -25.43315 -49.34474 6986 ft 210 kts 45°
2026-04-28 00:58 -25.42492 -49.33186 6727 ft 202 kts 68°
2026-04-28 00:59 -25.42216 -49.31698 6477 ft 195 kts 89°
2026-04-28 00:59 -25.42349 -49.30243 6237 ft 186 kts 106°
2026-04-28 00:59 -25.42856 -49.28968 6008 ft 179 kts 124°
2026-04-28 00:59 -25.43630 -49.27924 5763 ft 174 kts 133°
2026-04-28 01:00 -25.44401 -49.27004 5687 ft 151 kts 135°
2026-04-28 01:00 -25.45114 -49.26211 5427 ft 142 kts 136°
2026-04-28 01:00 -25.45815 -49.25453 5086 ft 139 kts 136°
2026-04-28 01:00 -25.46481 -49.24678 4742 ft 138 kts 134°
2026-04-28 01:01 -25.47130 -49.23922 4424 ft 137 kts 135°
2026-04-28 01:01 -25.47805 -49.23176 4187 ft 137 kts 136°
2026-04-28 01:01 -25.48485 -49.22441 4014 ft 137 kts 137°
2026-04-28 01:01 -25.49158 -49.21698 3850 ft 136 kts 135°
2026-04-28 01:02 -25.49817 -49.20950 3692 ft 135 kts 135°
2026-04-28 01:02 -25.50475 -49.20209 3502 ft 134 kts 135°
2026-04-28 01:02 -25.51130 -49.19495 3329 ft 134 kts 135°
2026-04-28 01:02 -25.51793 -49.18773 3131 ft 132 kts 134°
2026-04-28 01:03 -25.52434 -49.18050 3005 ft 129 kts 134°
2026-04-28 01:03 -25.52866 -49.17556 2991 ft 45 kts 134°
2026-04-28 01:03 -25.53033 -49.17369 2996 ft 33 kts 134°
2026-04-28 01:03 -25.53124 -49.17277 2996 ft 7 kts 168°
2026-04-28 01:04 -25.53161 -49.17298 2996 ft 6 kts 225°
2026-04-28 01:04 -25.53189 -49.17330 2996 ft 6 kts 224°
2026-04-28 01:04 -25.53218 -49.17356 2996 ft 5 kts 201°
2026-04-28 01:04 -25.53250 -49.17355 2996 ft 5 kts 173°
2026-04-28 01:05 -25.53298 -49.17350 2996 ft 8 kts 176°
2026-04-28 01:05 -25.53356 -49.17340 2996 ft 8 kts 150°
2026-04-28 01:05 -25.53401 -49.17293 2995 ft 10 kts 135°
2026-04-28 01:05 -25.53441 -49.17274 2995 ft 3 kts 209°
2026-04-28 01:06 -25.53446 -49.17277 2995 ft 0 kts 210°
2026-04-28 01:06 -25.53462 -49.17287 2996 ft 6 kts 210°
2026-04-28 01:06 -25.53492 -49.17307 2996 ft 0 kts 210°